Princeton, MN

7:08 AM CST on November 15, 2019 (GMT -0600)
Princeton Municipal

Weather History for KPNM - June, 2019

Change the Weather History Date:

Monday, June 10, 2019

  Actual Average Record
Temperature  
Mean Temperature 60 °F -  
Max Temperature 77 °F 72 °F 93 °F (2017)
Min Temperature 42 °F 49 °F 42 °F (2019)
Degree Days  
Heating Degree Days 6    
Growing Degree Days 10 (Base 50)    
Moisture  
Dew Point 45 °F    
Average Humidity 63    
Maximum Humidity 100    
Minimum Humidity 25    
Precipitation  
Precipitation 0.00 in - - ()
Sea Level Pressure  
Sea Level Pressure 30.15 in    
Wind  
Wind Speed 3 mph (West)    
Max Wind Speed 17 mph    
Max Gust Speed 28 mph    
Visibility 9 miles    
Events Rain    
Averages and records for this station are not official NWS values.
T = Trace of Precipitation, MM = Missing Value Source: NWS Daily Summary

Daily Weather History Graph

Daily Weather History Graph

Search for Another Location

Airport or City:

Astronomy

Jun. 10, 2019 Rise Set
Actual Time 5:25 AM CDT 9:02 PM CDT
Civil Twilight 4:47 AM CDT 9:40 PM CDT
Nautical Twilight 3:57 AM CDT 10:30 PM CDT
Astronomical Twilight 2:50 AM CDT 11:38 PM CDT
Moon 1:30 PM CDT (6/10) 2:03 AM CDT (6/10)
Length of Visible Light 16h 52m
Length of Day
15h 37m
First Quarter, 55% of the Moon is Illuminated
Jun 10
First Quarter
Jun 17
Full
Jun 25
Last Quarter
Jul 2
New
Jul 9
First Quarter

Hourly Weather History & Observations

Time (CDT) Temp. Dew Point Humidity Pressure Visibility Wind Dir Wind Speed Gust Speed Precip Events Conditions
12:15 AM 48.2 °F 44.6 °F 87% 30.18 in 10.0 mi Calm Calm - N/A   Clear
12:16 AM 48.2 °F 44.6 °F 87% 30.18 in 10.0 mi Calm Calm - N/A   Clear
12:35 AM 46.4 °F 44.6 °F 93% 30.18 in 10.0 mi Calm Calm - N/A   Clear
12:59 AM 48.2 °F 44.6 °F 87% 30.18 in 10.0 mi Calm Calm - N/A   Clear
1:17 AM 46.4 °F 44.6 °F 93% 30.18 in 10.0 mi Calm Calm - N/A   Clear
1:35 AM 44.6 °F 42.8 °F 93% 30.18 in 10.0 mi Calm Calm - N/A   Clear
1:36 AM 44.6 °F 42.8 °F 93% 30.18 in 10.0 mi Calm Calm - N/A   Clear
1:55 AM 44.6 °F 42.8 °F 93% 30.18 in 10.0 mi Calm Calm - N/A   Clear
1:56 AM 44.6 °F 42.8 °F 93% 30.18 in 10.0 mi Calm Calm - N/A   Clear
2:15 AM 44.6 °F 42.8 °F 93% 30.18 in 10.0 mi Calm Calm - N/A   Clear
2:38 AM 44.6 °F 44.6 °F 100% 30.18 in 10.0 mi Calm Calm - N/A   Clear
2:56 AM 44.6 °F 44.6 °F 100% 30.18 in 10.0 mi Calm Calm - N/A   Clear
3:15 AM 44.6 °F 42.8 °F 93% 30.18 in 10.0 mi Calm Calm - N/A   Clear
3:16 AM 44.6 °F 42.8 °F 93% 30.18 in 10.0 mi Calm Calm - N/A   Clear
3:35 AM 44.6 °F 42.8 °F 93% 30.18 in 1.5 mi Calm Calm - N/A   Clear
3:58 AM 44.6 °F 42.8 °F 93% 30.18 in 10.0 mi Calm Calm - N/A   Clear
4:17 AM 44.6 °F 42.8 °F 93% 30.19 in 2.5 mi Calm Calm - N/A   Scattered Clouds
4:35 AM 44.6 °F 42.8 °F 93% 30.19 in 2.0 mi Calm Calm - N/A   Mostly Cloudy
4:55 AM 42.8 °F 42.8 °F 100% 30.19 in 10.0 mi Calm Calm - N/A   Clear
5:15 AM 42.8 °F 41.0 °F 93% 30.19 in 5.0 mi Calm Calm - N/A   Clear
5:20 AM 42.8 °F 42.8 °F 100% 30.19 in 2.5 mi Calm Calm - N/A   Clear
5:38 AM 42.8 °F 42.8 °F 100% 30.19 in 1.0 mi Calm Calm - N/A   Clear
5:56 AM 42.8 °F 41.0 °F 93% 30.20 in 0.8 mi Calm Calm - N/A   Mist
6:15 AM 44.6 °F 44.6 °F 100% 30.19 in 7.0 mi Calm Calm - N/A   Clear
6:35 AM 46.4 °F 46.4 °F 100% 30.19 in 10.0 mi Calm Calm - N/A   Clear
6:36 AM 46.4 °F 46.4 °F 100% 30.19 in 10.0 mi Calm Calm - N/A   Clear
6:59 AM 50.0 °F 48.2 °F 94% 30.19 in 10.0 mi Calm Calm - N/A   Clear
7:17 AM 51.8 °F 51.8 °F 100% 30.19 in 10.0 mi Calm Calm - N/A   Clear
7:35 AM 55.4 °F 50.0 °F 82% 30.19 in 10.0 mi Calm Calm - N/A   Clear
7:55 AM 59.0 °F 50.0 °F 72% 30.20 in 10.0 mi West 3.5 mph - N/A   Clear
7:56 AM 59.0 °F 50.0 °F 72% 30.20 in 10.0 mi West 3.5 mph - N/A   Clear
8:15 AM 60.8 °F 51.8 °F 72% 30.19 in 10.0 mi West 4.6 mph - N/A   Clear
8:20 AM 60.8 °F 50.0 °F 68% 30.19 in 10.0 mi West 6.9 mph - N/A   Clear
8:38 AM 62.6 °F 50.0 °F 63% 30.19 in 10.0 mi West 6.9 mph - N/A   Clear
8:56 AM 64.4 °F 48.2 °F 56% 30.19 in 10.0 mi West 6.9 mph - N/A   Clear
9:35 AM 66.2 °F 46.4 °F 49% 30.19 in 10.0 mi West 9.2 mph - N/A   Clear
9:36 AM 66.2 °F 46.4 °F 49% 30.19 in 10.0 mi West 8.1 mph - N/A   Clear
9:59 AM 69.8 °F 44.6 °F 40% 30.19 in 10.0 mi West 9.2 mph - N/A   Clear
10:17 AM 69.8 °F 44.6 °F 40% 30.19 in 10.0 mi West 9.2 mph - N/A   Clear
10:35 AM 69.8 °F 44.6 °F 40% 30.18 in 10.0 mi West 8.1 mph - N/A   Clear
10:55 AM 71.6 °F 44.6 °F 38% 30.18 in 10.0 mi West 12.7 mph - N/A   Clear
11:15 AM 71.6 °F 44.6 °F 38% 30.17 in 10.0 mi West 6.9 mph - N/A   Clear
11:20 AM 71.6 °F 44.6 °F 38% 30.17 in 10.0 mi WSW 9.2 mph - N/A   Clear
11:38 AM 73.4 °F 44.6 °F 36% 30.17 in 10.0 mi WSW 9.2 mph - N/A   Clear
11:56 AM 73.4 °F 42.8 °F 33% 30.17 in 10.0 mi West 13.8 mph 18.4 mph N/A   Clear
12:15 PM 73.4 °F 42.8 °F 33% 30.17 in 10.0 mi West 10.4 mph 17.3 mph N/A   Clear
12:35 PM 75.2 °F 42.8 °F 31% 30.16 in 10.0 mi West 5.8 mph 18.4 mph N/A   Clear
12:36 PM 75.2 °F 42.8 °F 31% 30.16 in 10.0 mi West 6.9 mph 18.4 mph N/A   Clear
12:59 PM 73.4 °F 39.2 °F 29% 30.16 in 10.0 mi West 9.2 mph 12.7 mph N/A   Scattered Clouds
1:17 PM 75.2 °F 39.2 °F 27% 30.16 in 10.0 mi West 15.0 mph 20.7 mph N/A   Scattered Clouds
1:35 PM 73.4 °F 39.2 °F 29% 30.15 in 10.0 mi West 12.7 mph 18.4 mph N/A   Scattered Clouds
1:55 PM 75.2 °F 37.4 °F 25% 30.15 in 10.0 mi West 12.7 mph 18.4 mph N/A   Scattered Clouds
2:15 PM 75.2 °F 39.2 °F 27% 30.14 in 10.0 mi West 11.5 mph 21.9 mph N/A   Scattered Clouds
2:20 PM 77.0 °F 39.2 °F 26% 30.14 in 10.0 mi West 17.3 mph 23.0 mph N/A   Scattered Clouds
2:38 PM 75.2 °F 37.4 °F 25% 30.14 in 10.0 mi West 12.7 mph 27.6 mph N/A   Scattered Clouds
2:56 PM 75.2 °F 37.4 °F 25% 30.13 in 10.0 mi WNW 13.8 mph 19.6 mph N/A   Scattered Clouds
3:15 PM 73.4 °F 39.2 °F 29% 30.13 in 10.0 mi West 16.1 mph - N/A   Mostly Cloudy
3:35 PM 73.4 °F 39.2 °F 29% 30.13 in 10.0 mi West 11.5 mph 16.1 mph N/A   Mostly Cloudy
3:59 PM 75.2 °F 39.2 °F 27% 30.12 in 10.0 mi WNW 10.4 mph - N/A   Scattered Clouds
4:17 PM 73.4 °F 39.2 °F 29% 30.12 in 10.0 mi West 10.4 mph - N/A   Scattered Clouds
4:35 PM 71.6 °F 39.2 °F 31% 30.14 in 10.0 mi NW 16.1 mph 25.3 mph N/A   Mostly Cloudy
4:36 PM 71.6 °F 39.2 °F 31% 30.14 in 10.0 mi NW 15.0 mph 25.3 mph N/A   Mostly Cloudy
4:55 PM 71.6 °F 46.4 °F 41% 30.14 in 10.0 mi West 9.2 mph 20.7 mph N/A Rain Light Rain
4:56 PM 71.6 °F 44.6 °F 38% 30.14 in 10.0 mi West 9.2 mph 19.6 mph N/A Rain Light Rain
5:15 PM 71.6 °F 42.8 °F 35% 30.12 in 10.0 mi West 4.6 mph - N/A   Clear
5:38 PM 73.4 °F 42.8 °F 33% 30.11 in 10.0 mi West 4.6 mph - N/A   Clear
5:56 PM 73.4 °F 42.8 °F 33% 30.10 in 10.0 mi West 6.9 mph - N/A   Clear
6:15 PM 75.2 °F 42.8 °F 31% 30.10 in 10.0 mi West 6.9 mph - N/A   Clear
6:16 PM 75.2 °F 42.8 °F 31% 30.10 in 10.0 mi West 8.1 mph - N/A   Clear
6:35 PM 71.6 °F 44.6 °F 38% 30.10 in 10.0 mi NNW 6.9 mph - N/A   Scattered Clouds
6:59 PM 69.8 °F 44.6 °F 40% 30.10 in 10.0 mi NW 4.6 mph - N/A Rain Light Rain
7:16 PM 71.6 °F 44.6 °F 38% 30.10 in 10.0 mi NW 4.6 mph - N/A   Clear
7:35 PM 71.6 °F 46.4 °F 41% 30.10 in 10.0 mi WSW 3.5 mph - N/A   Clear
7:55 PM 71.6 °F 48.2 °F 43% 30.10 in 10.0 mi Calm Calm - N/A   Clear
7:56 PM 71.6 °F 48.2 °F 43% 30.10 in 10.0 mi Calm Calm - N/A   Clear
8:15 PM 68.0 °F 51.8 °F 56% 30.10 in 10.0 mi Calm Calm - N/A   Clear
8:20 PM 68.0 °F 51.8 °F 56% 30.10 in 10.0 mi Calm Calm - N/A   Clear
8:38 PM 64.4 °F 51.8 °F 64% 30.10 in 10.0 mi Calm Calm - N/A   Clear
8:56 PM 62.6 °F 51.8 °F 68% 30.11 in 10.0 mi Calm Calm - N/A   Clear
9:15 PM 59.0 °F 50.0 °F 72% 30.11 in 10.0 mi Calm Calm - N/A   Clear
9:35 PM 57.2 °F 50.0 °F 77% 30.11 in 10.0 mi Calm Calm - N/A   Clear
9:36 PM 57.2 °F 50.0 °F 77% 30.11 in 10.0 mi Calm Calm - N/A   Clear
9:59 PM 55.4 °F 50.0 °F 82% 30.12 in 10.0 mi Calm Calm - N/A   Clear
10:17 PM 53.6 °F 50.0 °F 88% 30.12 in 10.0 mi Calm Calm - N/A   Clear
10:35 PM 51.8 °F 50.0 °F 94% 30.12 in 10.0 mi Calm Calm - N/A   Clear
10:55 PM 51.8 °F 48.2 °F 88% 30.12 in 10.0 mi Calm Calm - N/A   Clear
10:56 PM 51.8 °F 50.0 °F 94% 30.12 in 10.0 mi Calm Calm - N/A   Clear
11:15 PM 51.8 °F 48.2 °F 88% 30.12 in 10.0 mi Calm Calm - N/A   Clear
11:20 PM 51.8 °F 48.2 °F 88% 30.12 in 10.0 mi Calm Calm - N/A   Clear
11:38 PM 51.8 °F 48.2 °F 88% 30.11 in 10.0 mi Calm Calm - N/A   Clear
11:56 PM 51.8 °F 48.2 °F 88% 30.12 in 10.0 mi Calm Calm - N/A   Clear